#Datum;Uhrzeit;WR;Pac;DaySum;Status;WR;Pac;DaySum;Status;Pdc1;Udc;Temp;WR;Pac;DaySum;Status;Pdc1;Udc;Temp;WR;Pac;DaySum;Status;Pdc1;Udc;Temp;WR;Pac;DaySum;Status;Pdc1;Pdc2;Udc1;Udc2;Temp;WR;Pac;DaySum;Status;Pdc1;Pdc2;Udc1;Udc2;Temp;WR;Pac;DaySum;Status;Pdc1;Udc;Temp;WR;Pac;DaySum;Status;Pdc1;Udc;Temp;WR;Pac;DaySum;Status;Pdc1;Udc;Temp
15.02.20;23:55:00;1;974;14236;0;2;0;19495;0;0;0;0;3;0;12538;0;0;0;0;4;0;17669;0;0;0;0;5;0;44321;0;0;0;0;0;0;6;0;33501;0;0;0;0;0;0;7;0;30029;0;0;0;0;8;0;29460;0;0;0;0;9;0;15848;0;0;0;0
15.02.20;23:50:00;1;952;14154;0;2;0;19495;0;0;0;0;3;0;12538;0;0;0;0;4;0;17669;0;0;0;0;5;0;44321;0;0;0;0;0;0;6;0;33501;0;0;0;0;0;0;7;0;30029;0;0;0;0;8;0;29460;0;0;0;0;9;0;15848;0;0;0;0
15.02.20;23:45:00;1;958;14075;0;2;0;19495;0;0;0;0;3;0;12538;0;0;0;0;4;0;17669;0;0;0;0;5;0;44321;0;0;0;0;0;0;6;0;33501;0;0;0;0;0;0;7;0;30029;0;0;0;0;8;0;29460;0;0;0;0;9;0;15848;0;0;0;0
15.02.20;23:40:00;1;1022;13994;0;2;0;19495;0;0;0;0;3;0;12538;0;0;0;0;4;0;17669;0;0;0;0;5;0;44321;0;0;0;0;0;0;6;0;33501;0;0;0;0;0;0;7;0;30029;0;0;0;0;8;0;29460;0;0;0;0;9;0;15848;0;0;0;0
15.02.20;23:35:00;1;993;13909;0;2;0;19495;0;0;0;0;3;0;12538;0;0;0;0;4;0;17669;0;0;0;0;5;0;44321;0;0;0;0;0;0;6;0;33501;0;0;0;0;0;0;7;0;30029;0;0;0;0;8;0;29460;0;0;0;0;9;0;15848;0;0;0;0
15.02.20;23:30:00;1;968;13826;0;2;0;19495;0;0;0;0;3;0;12538;0;0;0;0;4;0;17669;0;0;0;0;5;0;44321;0;0;0;0;0;0;6;0;33501;0;0;0;0;0;0;7;0;30029;0;0;0;0;8;0;29460;0;0;0;0;9;0;15848;0;0;0;0
15.02.20;23:25:00;1;978;13746;0;2;0;19495;0;0;0;0;3;0;12538;0;0;0;0;4;0;17669;0;0;0;0;5;0;44321;0;0;0;0;0;0;6;0;33501;0;0;0;0;0;0;7;0;30029;0;0;0;0;8;0;29460;0;0;0;0;9;0;15848;0;0;0;0
15.02.20;23:20:00;1;1014;13663;0;2;0;19495;0;0;0;0;3;0;12538;0;0;0;0;4;0;17669;0;0;0;0;5;0;44321;0;0;0;0;0;0;6;0;33501;0;0;0;0;0;0;7;0;30029;0;0;0;0;8;0;29460;0;0;0;0;9;0;15848;0;0;0;0
15.02.20;23:15:00;1;1010;13579;0;2;0;19495;0;0;0;0;3;0;12538;0;0;0;0;4;0;17669;0;0;0;0;5;0;44321;0;0;0;0;0;0;6;0;33501;0;0;0;0;0;0;7;0;30029;0;0;0;0;8;0;29460;0;0;0;0;9;0;15848;0;0;0;0
15.02.20;23:10:00;1;1033;13495;0;2;0;19495;0;0;0;0;3;0;12538;0;0;0;0;4;0;17669;0;0;0;0;5;0;44321;0;0;0;0;0;0;6;0;33501;0;0;0;0;0;0;7;0;30029;0;0;0;0;8;0;29460;0;0;0;0;9;0;15848;0;0;0;0
15.02.20;23:05:00;1;972;13407;0;2;0;19495;0;0;0;0;3;0;12538;0;0;0;0;4;0;17669;0;0;0;0;5;0;44321;0;0;0;0;0;0;6;0;33501;0;0;0;0;0;0;7;0;30029;0;0;0;0;8;0;29460;0;0;0;0;9;0;15848;0;0;0;0
15.02.20;23:00:00;1;998;13326;0;2;0;19495;0;0;0;0;3;0;12538;0;0;0;0;4;0;17669;0;0;0;0;5;0;44321;0;0;0;0;0;0;6;0;33501;0;0;0;0;0;0;7;0;30029;0;0;0;0;8;0;29460;0;0;0;0;9;0;15848;0;0;0;0
15.02.20;22:55:00;1;1055;13241;0;2;0;19495;0;0;0;0;3;0;12538;0;0;0;0;4;0;17669;0;0;0;0;5;0;44321;2;0;0;0;0;0;6;0;33501;2;0;0;0;0;0;7;0;30029;0;0;0;0;8;0;29460;0;0;0;0;9;0;15848;0;0;0;0
15.02.20;22:50:00;1;1091;13154;0;2;0;19495;0;0;0;0;3;0;12538;0;0;0;0;4;0;17669;0;0;0;0;5;0;44321;2;0;0;0;0;0;6;0;33501;2;0;0;0;0;0;7;0;30029;0;0;0;0;8;0;29460;0;0;0;0;9;0;15848;0;0;0;0
15.02.20;22:45:00;1;1148;13063;0;2;0;19495;0;0;0;0;3;0;12538;0;0;0;0;4;0;17669;0;0;0;0;5;0;44321;2;0;0;0;0;0;6;0;33501;2;0;0;0;0;0;7;0;30029;0;0;0;0;8;0;29460;0;0;0;0;9;0;15848;0;0;0;0
15.02.20;22:40:00;1;1179;12966;0;2;0;19495;0;0;0;0;3;0;12538;0;0;0;0;4;0;17669;0;0;0;0;5;0;44321;2;0;0;0;0;0;6;0;33501;2;0;0;0;0;0;7;0;30029;0;0;0;0;8;0;29460;0;0;0;0;9;0;15848;0;0;0;0
15.02.20;22:35:00;1;1202;12867;0;2;0;19495;0;0;0;0;3;0;12538;0;0;0;0;4;0;17669;0;0;0;0;5;0;44321;2;0;0;0;0;0;6;0;33501;2;0;0;0;0;0;7;0;30029;0;0;0;0;8;0;29460;0;0;0;0;9;0;15848;0;0;0;0
15.02.20;22:30:00;1;1195;12766;0;2;0;19495;0;0;0;0;3;0;12538;0;0;0;0;4;0;17669;0;0;0;0;5;0;44321;2;0;0;0;0;0;6;0;33501;2;0;0;0;0;0;7;0;30029;0;0;0;0;8;0;29460;0;0;0;0;9;0;15848;0;0;0;0
15.02.20;22:25:00;1;1081;12670;0;2;0;19495;0;0;0;0;3;0;12538;0;0;0;0;4;0;17669;0;0;0;0;5;0;44321;2;0;0;0;0;0;6;0;33501;2;0;0;0;0;0;7;0;30029;0;0;0;0;8;0;29460;0;0;0;0;9;0;15848;0;0;0;0
15.02.20;22:20:00;1;961;12581;0;2;0;19495;0;0;0;0;3;0;12538;0;0;0;0;4;0;17669;0;0;0;0;5;0;44321;2;0;0;0;0;0;6;0;33501;2;0;0;0;0;0;7;0;30029;0;0;0;0;8;0;29460;0;0;0;0;9;0;15848;0;0;0;0
15.02.20;22:15:00;1;960;12500;0;2;0;19495;0;0;0;0;3;0;12538;0;0;0;0;4;0;17669;0;0;0;0;5;0;44321;2;0;0;0;0;0;6;0;33501;2;0;0;0;0;0;7;0;30029;0;0;0;0;8;0;29460;0;0;0;0;9;0;15848;0;0;0;0
15.02.20;22:10:00;1;969;12420;0;2;0;19495;0;0;0;0;3;0;12538;0;0;0;0;4;0;17669;0;0;0;0;5;0;44321;2;0;0;0;0;0;6;0;33501;2;0;0;0;0;0;7;0;30029;0;0;0;0;8;0;29460;0;0;0;0;9;0;15848;0;0;0;0
15.02.20;22:05:00;1;1018;12340;0;2;0;19495;0;0;0;0;3;0;12538;0;0;0;0;4;0;17669;0;0;0;0;5;0;44321;2;0;0;0;0;0;6;0;33501;2;0;0;0;0;0;7;0;30029;0;0;0;0;8;0;29460;0;0;0;0;9;0;15848;0;0;0;0
15.02.20;22:00:00;1;908;12261;0;2;0;19495;0;0;0;0;3;0;12538;0;0;0;0;4;0;17669;0;0;0;0;5;0;44321;2;0;0;0;0;0;6;0;33501;2;0;0;0;0;0;7;0;30029;0;0;0;0;8;0;29460;0;0;0;0;9;0;15848;0;0;0;0
15.02.20;21:55:00;1;926;12185;0;2;0;19495;0;0;0;0;3;0;12538;0;0;0;0;4;0;17669;0;0;0;0;5;0;44321;2;0;0;0;0;0;6;0;33501;2;0;0;0;0;0;7;0;30029;0;0;0;0;8;0;29460;0;0;0;0;9;0;15848;0;0;0;0
15.02.20;21:50:00;1;1001;12107;0;2;0;19495;0;0;0;0;3;0;12538;0;0;0;0;4;0;17669;0;0;0;0;5;0;44321;2;0;0;0;0;0;6;0;33501;2;0;0;0;0;0;7;0;30029;0;0;0;0;8;0;29460;0;0;0;0;9;0;15848;0;0;0;0
15.02.20;21:45:00;1;1012;12023;0;2;0;19495;0;0;0;0;3;0;12538;0;0;0;0;4;0;17669;0;0;0;0;5;0;44321;2;0;0;0;0;0;6;0;33501;2;0;0;0;0;0;7;0;30029;0;0;0;0;8;0;29460;0;0;0;0;9;0;15848;0;0;0;0
15.02.20;21:40:00;1;1017;11939;0;2;0;19495;0;0;0;0;3;0;12538;0;0;0;0;4;0;17669;0;0;0;0;5;0;44321;2;0;0;0;0;0;6;0;33501;2;0;0;0;0;0;7;0;30029;0;0;0;0;8;0;29460;0;0;0;0;9;0;15848;0;0;0;0
15.02.20;21:35:00;1;1022;11854;0;2;0;19495;0;0;0;0;3;0;12538;0;0;0;0;4;0;17669;0;0;0;0;5;0;44321;2;0;0;0;0;0;6;0;33501;2;0;0;0;0;0;7;0;30029;0;0;0;0;8;0;29460;0;0;0;0;9;0;15848;0;0;0;0
15.02.20;21:30:00;1;952;11768;0;2;0;19495;0;0;0;0;3;0;12538;0;0;0;0;4;0;17669;0;0;0;0;5;0;44321;2;0;0;0;0;0;6;0;33501;2;0;0;0;0;0;7;0;30029;0;0;0;0;8;0;29460;0;0;0;0;9;0;15848;0;0;0;0
15.02.20;21:25:00;1;953;11688;0;2;0;19495;0;0;0;0;3;0;12538;0;0;0;0;4;0;17669;0;0;0;0;5;0;44321;2;0;0;0;0;0;6;0;33501;2;0;0;0;0;0;7;0;30029;0;0;0;0;8;0;29460;0;0;0;0;9;0;15848;0;0;0;0
15.02.20;21:20:00;1;957;11609;0;2;0;19495;0;0;0;0;3;0;12538;0;0;0;0;4;0;17669;0;0;0;0;5;0;44321;2;0;0;0;0;0;6;0;33501;2;0;0;0;0;0;7;0;30029;0;0;0;0;8;0;29460;0;0;0;0;9;0;15848;0;0;0;0
15.02.20;21:15:00;1;951;11529;0;2;0;19495;0;0;0;0;3;0;12538;0;0;0;0;4;0;17669;0;0;0;0;5;0;44321;2;0;0;0;0;0;6;0;33501;2;0;0;0;0;0;7;0;30029;0;0;0;0;8;0;29460;0;0;0;0;9;0;15848;0;0;0;0
15.02.20;21:10:00;1;953;11449;0;2;0;19495;0;0;0;0;3;0;12538;0;0;0;0;4;0;17669;0;0;0;0;5;0;44321;2;0;0;0;0;0;6;0;33501;2;0;0;0;0;0;7;0;30029;0;0;0;0;8;0;29460;0;0;0;0;9;0;15848;0;0;0;0
15.02.20;21:05:00;1;1014;11370;0;2;0;19495;0;0;0;0;3;0;12538;0;0;0;0;4;0;17669;0;0;0;0;5;0;44321;2;0;0;0;0;0;6;0;33501;2;0;0;0;0;0;7;0;30029;0;0;0;0;8;0;29460;0;0;0;0;9;0;15848;0;0;0;0
15.02.20;21:00:00;1;1047;11285;0;2;0;19495;0;0;0;0;3;0;12538;0;0;0;0;4;0;17669;0;0;0;0;5;0;44321;2;0;0;0;0;0;6;0;33501;2;0;0;0;0;0;7;0;30029;0;0;0;0;8;0;29460;0;0;0;0;9;0;15848;0;0;0;0
15.02.20;20:55:00;1;1069;11197;0;2;0;19495;0;0;0;0;3;0;12538;0;0;0;0;4;0;17669;0;0;0;0;5;0;44321;2;0;0;0;0;0;6;0;33501;2;0;0;0;0;0;7;0;30029;0;0;0;0;8;0;29460;0;0;0;0;9;0;15848;0;0;0;0
15.02.20;20:50:00;1;1033;11109;0;2;0;19495;0;0;0;0;3;0;12538;0;0;0;0;4;0;17669;0;0;0;0;5;0;44321;2;0;0;0;0;0;6;0;33501;2;0;0;0;0;0;7;0;30029;0;0;0;0;8;0;29460;0;0;0;0;9;0;15848;0;0;0;0
15.02.20;20:45:00;1;920;11026;0;2;0;19495;0;0;0;0;3;0;12538;0;0;0;0;4;0;17669;0;0;0;0;5;0;44321;2;0;0;0;0;0;6;0;33501;2;0;0;0;0;0;7;0;30029;0;0;0;0;8;0;29460;0;0;0;0;9;0;15848;0;0;0;0
15.02.20;20:40:00;1;943;10950;0;2;0;19495;0;0;0;0;3;0;12538;0;0;0;0;4;0;17669;0;0;0;0;5;0;44321;2;0;0;0;0;0;6;0;33501;2;0;0;0;0;0;7;0;30029;0;0;0;0;8;0;29460;0;0;0;0;9;0;15848;0;0;0;0
15.02.20;20:35:00;1;943;10871;0;2;0;19495;0;0;0;0;3;0;12538;0;0;0;0;4;0;17669;0;0;0;0;5;0;44321;2;0;0;0;0;0;6;0;33501;2;0;0;0;0;0;7;0;30029;0;0;0;0;8;0;29460;0;0;0;0;9;0;15848;0;0;0;0
15.02.20;20:30:00;1;970;10792;0;2;0;19495;0;0;0;0;3;0;12538;0;0;0;0;4;0;17669;0;0;0;0;5;0;44321;2;0;0;0;0;0;6;0;33501;2;0;0;0;0;0;7;0;30029;0;0;0;0;8;0;29460;0;0;0;0;9;0;15848;0;0;0;0
15.02.20;20:25:00;1;920;10712;0;2;0;19495;0;0;0;0;3;0;12538;0;0;0;0;4;0;17669;0;0;0;0;5;0;44321;2;0;0;0;0;0;6;0;33501;2;0;0;0;0;0;7;0;30029;0;0;0;0;8;0;29460;0;0;0;0;9;0;15848;0;0;0;0
15.02.20;20:20:00;1;965;10635;0;2;0;19495;0;0;0;0;3;0;12538;0;0;0;0;4;0;17669;0;0;0;0;5;0;44321;2;0;0;0;0;0;6;0;33501;2;0;0;0;0;0;7;0;30029;0;0;0;0;8;0;29460;0;0;0;0;9;0;15848;0;0;0;0
15.02.20;20:15:00;1;962;10554;0;2;0;19495;0;0;0;0;3;0;12538;0;0;0;0;4;0;17669;0;0;0;0;5;0;44321;2;0;0;0;0;0;6;0;33501;2;0;0;0;0;0;7;0;30029;0;0;0;0;8;0;29460;0;0;0;0;9;0;15848;0;0;0;0
15.02.20;20:10:00;1;967;10474;0;2;0;19495;0;0;0;0;3;0;12538;0;0;0;0;4;0;17669;0;0;0;0;5;0;44321;2;0;0;0;0;0;6;0;33501;2;0;0;0;0;0;7;0;30029;0;0;0;0;8;0;29460;0;0;0;0;9;0;15848;0;0;0;0
15.02.20;20:05:00;1;900;10394;0;2;0;19495;0;0;0;0;3;0;12538;0;0;0;0;4;0;17669;0;0;0;0;5;0;44321;2;0;0;0;0;0;6;0;33501;2;0;0;0;0;0;7;0;30029;0;0;0;0;8;0;29460;0;0;0;0;9;0;15848;0;0;0;0
15.02.20;20:00:00;1;888;10319;0;2;0;19495;0;0;0;0;3;0;12538;0;0;0;0;4;0;17669;0;0;0;0;5;0;44321;2;0;0;0;0;0;6;0;33501;2;0;0;0;0;0;7;0;30029;0;0;0;0;8;0;29460;0;0;0;0;9;0;15848;0;0;0;0
15.02.20;19:55:00;1;873;10244;0;2;0;19495;0;0;0;0;3;0;12538;0;0;0;0;4;0;17669;0;0;0;0;5;0;44321;2;0;0;0;0;0;6;0;33501;2;0;0;0;0;0;7;0;30029;0;0;0;0;8;0;29460;0;0;0;0;9;0;15848;0;0;0;0
15.02.20;19:50:00;1;857;10172;0;2;0;19495;0;0;0;0;3;0;12538;0;0;0;0;4;0;17669;0;0;0;0;5;0;44321;2;0;0;0;0;0;6;0;33501;2;0;0;0;0;0;7;0;30029;0;0;0;0;8;0;29460;0;0;0;0;9;0;15848;0;0;0;0
15.02.20;19:45:00;1;892;10099;0;2;0;19495;0;0;0;0;3;0;12538;0;0;0;0;4;0;17669;0;0;0;0;5;0;44321;2;0;0;0;0;0;6;0;33501;2;0;0;0;0;0;7;0;30029;0;0;0;0;8;0;29460;0;0;0;0;9;0;15848;0;0;0;0
15.02.20;19:40:00;1;945;10026;0;2;0;19495;0;0;0;0;3;0;12538;0;0;0;0;4;0;17669;0;0;0;0;5;0;44321;2;0;0;0;0;0;6;0;33501;2;0;0;0;0;0;7;0;30029;0;0;0;0;8;0;29460;0;0;0;0;9;0;15848;0;0;0;0
15.02.20;19:35:00;1;822;9948;0;2;0;19495;0;0;0;0;3;0;12538;0;0;0;0;4;0;17669;0;0;0;0;5;0;44321;2;0;0;0;0;0;6;0;33501;2;0;0;0;0;0;7;0;30029;0;0;0;0;8;0;29460;0;0;0;0;9;0;15848;0;0;0;0
15.02.20;19:30:00;1;1009;9879;0;2;0;19495;0;0;0;0;3;0;12538;0;0;0;0;4;0;17669;0;0;0;0;5;0;44321;2;0;0;0;0;0;6;0;33501;2;0;0;0;0;0;7;0;30029;0;0;0;0;8;0;29460;0;0;0;0;9;0;15848;0;0;0;0
15.02.20;19:25:00;1;1033;9792;0;2;0;19495;0;0;0;0;3;0;12538;0;0;0;0;4;0;17669;0;0;0;0;5;0;44321;2;0;0;0;0;0;6;0;33501;2;0;0;0;0;0;7;0;30029;0;0;0;0;8;0;29460;0;0;0;0;9;0;15848;0;0;0;0
15.02.20;19:20:00;1;1017;9704;0;2;0;19495;0;0;0;0;3;0;12538;0;0;0;0;4;0;17669;0;0;0;0;5;0;44321;2;0;0;0;0;0;6;0;33501;2;0;0;0;0;0;7;0;30029;0;0;0;0;8;0;29460;0;0;0;0;9;0;15848;0;0;0;0
15.02.20;19:15:00;1;393;9623;0;2;0;19495;0;0;0;0;3;0;12538;0;0;0;0;4;0;17669;0;0;0;0;5;0;44321;2;0;0;0;0;0;6;0;33501;2;0;0;0;0;0;7;0;30029;0;0;0;0;8;0;29460;0;0;0;0;9;0;15848;0;0;0;0
15.02.20;19:10:00;1;279;9588;0;2;0;19495;0;0;0;0;3;0;12538;0;0;0;0;4;0;17669;0;0;0;0;5;0;44321;2;0;0;0;0;0;6;0;33501;2;0;0;0;0;0;7;0;30029;0;0;0;0;8;0;29460;0;0;0;0;9;0;15848;0;0;0;0
15.02.20;19:05:00;1;288;9564;0;2;0;19495;0;0;0;0;3;0;12538;0;0;0;0;4;0;17669;0;0;0;0;5;0;44321;2;0;0;0;0;0;6;0;33501;2;0;0;0;0;0;7;0;30029;0;0;0;0;8;0;29460;0;0;0;0;9;0;15848;0;0;0;0
15.02.20;19:00:00;1;350;9540;0;2;0;19495;0;0;0;0;3;0;12538;0;0;0;0;4;0;17669;0;0;0;0;5;0;44321;2;0;0;0;0;0;6;0;33501;2;0;0;0;0;0;7;0;30029;0;0;0;0;8;0;29460;0;0;0;0;9;0;15848;0;0;0;0
15.02.20;18:55:00;1;379;9510;0;2;0;19495;0;0;0;0;3;0;12538;0;0;0;0;4;0;17669;0;0;0;0;5;0;44321;2;0;0;0;0;0;6;0;33501;2;0;0;0;0;0;7;0;30029;0;0;0;0;8;0;29460;0;0;0;0;9;0;15848;0;0;0;0
15.02.20;18:50:00;1;367;9478;0;2;0;19495;0;0;0;0;3;0;12538;0;0;0;0;4;0;17669;0;0;0;0;5;0;44321;2;0;0;0;0;0;6;0;33501;2;0;0;0;0;0;7;0;30029;0;0;0;0;8;0;29460;0;0;0;0;9;0;15848;0;0;0;0
15.02.20;18:45:00;1;402;9447;0;2;0;19495;0;0;0;0;3;0;12538;0;0;0;0;4;0;17669;0;0;0;0;5;0;44321;2;0;0;0;0;0;6;0;33501;2;0;0;0;0;0;7;0;30029;0;0;0;0;8;0;29460;0;0;0;0;9;0;15848;0;0;0;0
15.02.20;18:40:00;1;475;9413;0;2;0;19495;0;0;0;0;3;0;12538;0;0;0;0;4;0;17669;0;0;0;0;5;0;44321;2;0;0;0;0;0;6;0;33501;2;0;0;0;0;0;7;0;30029;0;0;0;0;8;0;29460;0;0;0;0;9;0;15848;0;0;0;0
15.02.20;18:35:00;1;469;9371;0;2;0;19495;0;0;0;0;3;0;12538;0;0;0;0;4;0;17669;0;0;0;0;5;0;44321;2;0;0;0;0;0;6;0;33501;2;0;0;0;0;0;7;0;30029;0;0;0;0;8;0;29460;0;0;0;0;9;0;15848;0;0;0;0
15.02.20;18:30:00;1;432;9333;0;2;0;19495;0;0;0;0;3;0;12538;0;0;0;0;4;0;17669;0;0;0;0;5;0;44321;2;0;0;0;0;0;6;0;33501;2;0;0;0;0;0;7;0;30029;0;0;0;0;8;0;29460;0;0;0;0;9;0;15848;0;0;0;0
15.02.20;18:25:00;1;425;9297;0;2;0;19495;0;0;0;0;3;0;12538;0;0;0;0;4;0;17669;0;0;0;0;5;0;44321;2;0;0;0;0;0;6;0;33501;2;0;0;0;0;0;7;0;30029;0;0;0;0;8;0;29460;0;0;0;0;9;0;15848;0;0;0;0
15.02.20;18:20:00;1;399;9262;0;2;0;19495;0;0;0;0;3;0;12538;0;0;0;0;4;0;17669;0;0;0;0;5;0;44321;2;0;0;0;0;0;6;0;33501;2;0;0;0;0;0;7;0;30029;0;0;0;0;8;0;29460;0;0;0;0;9;0;15848;0;0;0;0
15.02.20;18:15:00;1;376;9230;0;2;0;19495;0;0;0;0;3;0;12538;0;0;0;0;4;0;17669;0;0;0;0;5;0;44321;2;0;0;0;0;0;6;0;33501;2;0;0;0;0;0;7;0;30029;0;0;0;0;8;0;29460;0;0;0;0;9;0;15848;0;0;0;0
15.02.20;18:10:00;1;439;9198;0;2;0;19495;0;0;0;0;3;0;12538;0;0;0;0;4;0;17669;0;0;0;0;5;0;44321;2;0;0;0;0;0;6;0;33501;2;0;0;0;0;0;7;0;30029;0;0;0;0;8;0;29460;0;0;0;0;9;0;15848;0;0;0;0
15.02.20;18:05:00;1;397;9163;0;2;0;19495;0;0;0;0;3;0;12538;0;0;0;0;4;0;17669;0;0;0;0;5;0;44321;2;0;0;0;0;0;6;0;33501;2;0;0;0;0;0;7;0;30029;0;0;0;0;8;0;29460;0;0;0;0;9;0;15848;0;0;0;0
15.02.20;18:00:00;1;562;9130;0;2;0;19495;0;0;0;0;3;0;12538;0;0;0;0;4;0;17669;0;0;0;0;5;0;44321;2;0;0;0;0;0;6;0;33501;2;0;0;0;0;0;7;0;30029;0;0;0;0;8;0;29460;0;0;0;0;9;0;15848;0;0;0;0
15.02.20;17:55:00;1;918;9080;0;2;0;19495;0;0;0;0;3;0;12538;0;0;0;0;4;0;17669;0;0;0;0;5;0;44321;2;0;0;0;0;0;6;0;33501;2;0;0;0;0;0;7;0;30029;0;0;0;0;8;0;29460;0;0;0;0;9;0;15848;0;0;0;0
15.02.20;17:50:00;1;687;9005;0;2;0;19495;0;0;131;7;3;0;12538;0;0;236;14;4;0;17669;0;0;0;0;5;0;44321;2;0;0;0;0;0;6;0;33501;2;0;0;0;0;0;7;0;30029;0;0;0;0;8;0;29460;0;0;0;0;9;0;15848;0;0;0;0
15.02.20;17:45:00;1;606;8941;0;2;0;19495;6;0;320;15;3;0;12538;6;0;385;17;4;0;17669;2;0;86;18;5;0;44321;2;0;0;31;30;9;6;0;33501;2;2;0;40;70;8;7;0;30029;0;0;43;3;8;0;29460;0;0;41;3;9;0;15848;0;0;42;2
15.02.20;17:40:00;1;1100;8885;0;2;0;19495;6;0;389;16;3;0;12538;6;3;468;18;4;0;17669;1;0;191;19;5;9;44321;26;0;0;392;564;28;6;0;33501;23;8;1;181;521;26;7;0;30029;6;2;365;21;8;0;29460;6;0;367;20;9;0;15848;0;0;252;9
15.02.20;17:35:00;1;571;8813;0;2;0;19495;6;0;412;16;3;2;12538;4;4;496;18;4;0;17669;3;0;215;20;5;18;44321;26;0;2;411;645;28;6;0;33501;23;9;0;182;576;27;7;1;30029;6;2;440;21;8;0;29460;6;1;445;21;9;1;15848;3;4;458;16
15.02.20;17:30:00;1;573;8766;0;2;0;19495;6;0;413;17;3;1;12538;3;12;472;18;4;0;17669;3;0;206;20;5;13;44320;8;0;0;420;669;29;6;0;33501;23;5;3;512;578;28;7;0;30029;6;4;445;22;8;1;29460;6;2;444;21;9;2;15848;6;5;450;16
15.02.20;17:25:00;1;573;8718;0;2;39;19495;6;66;372;18;3;3;12538;6;9;521;19;4;9;17669;3;10;199;20;5;91;44317;4;13;13;384;613;30;6;61;33501;4;16;36;496;473;29;7;1;30029;6;4;471;22;8;0;29460;6;5;466;22;9;1;15848;6;3;509;17
15.02.20;17:20:00;1;619;8670;0;2;132;19492;4;169;392;19;3;33;12538;6;50;542;19;4;47;17668;3;49;198;21;5;136;44310;4;38;36;384;613;30;6;95;33495;4;35;58;497;473;29;7;42;30029;4;77;391;23;8;32;29460;6;56;409;22;9;2;15848;6;7;528;17
15.02.20;17:15:00;1;752;8618;0;2;292;19481;4;336;398;19;3;124;12535;4;171;532;20;4;186;17664;5;193;226;21;5;203;44297;4;78;66;384;614;30;6;147;33487;4;56;78;496;473;29;7;96;30025;4;138;417;23;8;85;29457;4;115;392;22;9;5;15847;6;9;547;17
15.02.20;17:10:00;1;1138;8545;0;2;266;19456;4;307;394;19;3;129;12524;4;174;544;20;4;204;17649;5;213;231;21;5;253;44280;4;103;91;383;614;30;6;181;33474;4;70;88;497;473;29;7;163;30017;4;202;445;24;8;117;29450;4;147;375;23;9;0;15847;6;0;581;18
15.02.20;17:05:00;1;789;8442;0;2;222;19434;4;260;380;20;3;125;12513;4;164;486;20;4;154;17632;5;160;220;22;5;294;44259;4;120;104;384;614;31;6;200;33459;4;92;113;496;473;29;7;200;30004;4;234;423;24;8;153;29440;4;190;400;23;9;67;15847;4;99;480;19
15.02.20;17:00:00;1;1692;8372;0;2;236;19416;4;277;374;21;3;139;12503;4;181;482;21;4;156;17619;5;162;225;22;5;338;44234;4;153;125;384;614;31;6;234;33442;4;100;118;497;473;29;7;230;29987;4;261;446;25;8;198;29428;4;235;431;24;9;68;15841;4;93;381;15
15.02.20;16:55:00;1;1106;8257;0;2;372;19396;4;419;401;21;3;200;12491;4;237;416;21;4;267;17606;5;278;231;23;5;444;44205;4;209;173;395;616;31;6;321;33422;4;159;181;513;514;29;7;383;29968;4;432;466;25;8;278;29411;4;322;471;24;9;110;15834;4;145;516;19
15.02.20;16:50:00;1;769;8190;0;2;484;19365;4;538;402;22;3;269;12475;4;307;411;21;4;358;17584;5;373;242;23;5;557;44167;4;269;219;404;614;31;6;424;33395;4;196;217;576;554;30;7;561;29936;4;612;465;25;8;292;29388;4;326;376;20;9;105;15823;0;134;421;16
15.02.20;16:45:00;1;708;8127;0;2;603;19324;4;659;394;23;3;337;12452;4;382;421;22;4;438;17554;5;456;242;23;5;694;44120;4;339;277;412;634;32;6;521;33358;4;259;276;579;558;30;7;752;29889;4;802;474;26;8;460;29358;4;508;483;25;9;156;15814;4;192;524;20
15.02.20;16:40:00;1;471;8068;0;2;850;19274;4;915;385;24;3;493;12424;4;544;429;22;4;582;17517;5;606;244;24;5;955;44061;4;472;386;412;681;32;6;717;33314;4;369;384;591;564;30;7;1116;29826;4;1186;485;26;8;650;29319;4;703;442;25;9;106;15801;4;129;326;12
15.02.20;16:35:00;1;448;8030;0;2;1150;19203;4;1222;386;25;3;620;12383;4;675;428;23;4;698;17469;5;727;238;24;5;1205;43978;4;610;496;421;686;32;6;905;33251;4;454;468;591;573;30;7;1416;29734;4;1491;483;27;8;906;29266;4;958;382;26;9;209;15786;4;249;537;21
15.02.20;16:30:00;1;450;7993;0;2;1590;19109;4;1676;382;26;3;866;12332;4;928;424;23;4;932;17411;5;971;239;25;5;1660;43875;4;857;697;425;689;32;6;1257;33174;4;632;631;599;574;30;7;818;29617;4;856;193;10;8;1532;29191;4;1611;426;26;9;244;15769;4;284;487;22
15.02.20;16:25:00;1;454;7955;0;2;1432;18975;4;1519;385;26;3;788;12259;4;847;429;23;4;841;17333;5;876;234;25;5;1625;43735;4;836;681;421;690;32;6;1219;33068;4;613;631;595;568;30;7;1864;29451;4;1964;481;27;8;1653;29064;4;1739;461;27;9;288;15749;4;320;372;22
15.02.20;16:20:00;1;964;7903;0;2;1725;18856;4;1819;384;27;3;933;12194;4;996;436;24;4;955;17263;5;994;215;25;5;1960;43600;4;1024;838;430;689;33;6;1470;32967;4;746;738;598;574;30;7;2209;29293;4;2320;489;28;8;1599;28924;4;1685;373;21;9;497;15725;4;539;361;23
15.02.20;16:15:00;1;653;7846;0;2;1539;18712;4;1628;400;26;3;736;12116;4;803;531;24;4;898;17183;5;935;233;25;5;1914;43431;4;1001;812;428;694;33;6;1458;32840;4;750;755;594;575;31;7;2143;29107;4;2252;481;28;8;2065;28760;4;2179;470;27;9;720;15683;4;769;379;24
15.02.20;16:10:00;1;584;7795;0;2;975;18581;4;1046;397;27;3;535;12053;4;589;455;24;4;636;17107;5;662;250;26;5;1304;43277;4;654;537;423;666;33;6;982;32722;4;503;515;584;557;31;7;1175;28928;4;1244;468;28;8;1124;28586;4;1192;471;28;9;346;15623;4;378;325;19
15.02.20;16:05:00;1;443;7747;0;2;1489;18499;4;1578;389;28;3;826;12008;4;889;426;24;4;840;17054;5;874;251;26;5;1941;43164;4;1023;826;422;687;33;6;1461;32637;4;761;755;595;567;31;7;1923;28831;4;2028;476;29;8;1863;28493;4;1963;478;28;9;766;15587;4;825;424;25
15.02.20;16:00:00;1;1166;7710;0;2;1977;18376;4;2080;384;29;3;1107;11940;4;1179;426;25;4;1003;16984;5;1045;252;26;5;2571;42997;4;1373;1097;423;699;34;6;1935;32512;4;1008;988;601;575;31;7;2622;28670;4;2760;476;29;8;2588;28337;4;2722;470;29;9;1140;15524;4;1213;460;27
15.02.20;15:55:00;1;389;7655;0;2;1974;18215;4;2079;390;29;3;1100;11850;4;1170;431;25;4;999;16902;5;1041;254;27;5;2602;42794;4;1398;1117;424;702;34;6;1957;32358;4;1008;1001;601;579;31;7;2574;28455;4;2704;480;30;8;2516;28128;4;2640;482;29;9;1194;15431;4;1270;481;27
15.02.20;15:50:00;1;388;7621;0;2;1501;18051;4;1589;396;29;3;834;11758;4;897;425;25;4;865;16818;5;901;249;27;5;2095;42574;4;1102;891;421;681;34;6;1593;32192;4;807;799;584;567;31;7;2067;28243;4;2179;478;30;8;2049;27918;4;2147;473;29;9;1003;15332;4;1077;518;27
15.02.20;15:45:00;1;444;7589;0;2;1776;17925;4;1878;389;30;3;963;11688;4;1031;429;26;4;900;16746;5;938;252;28;5;2414;42395;4;1284;1038;421;682;35;6;1826;32057;4;935;924;584;562;32;7;1866;28070;4;1965;389;25;8;1499;27747;4;1579;318;20;9;1138;15248;4;1218;531;28
15.02.20;15:40:00;1;704;7547;0;2;2072;17778;4;2183;385;32;3;1143;11609;4;1212;421;26;4;998;16672;5;1040;251;28;5;2913;42192;4;1558;1249;422;676;35;6;2221;31904;4;1137;1126;587;565;32;7;2757;27881;4;2898;471;31;8;2715;27560;4;2849;465;30;9;1448;15152;4;1537;525;29
15.02.20;15:35:00;1;503;7490;0;2;2637;17609;4;2783;392;32;3;1447;11515;4;1528;426;27;4;1201;16589;5;1251;250;29;5;3741;41946;4;2031;1627;423;688;35;6;2832;31719;4;1474;1448;589;563;32;7;2840;27654;4;2975;395;25;8;2941;27294;0;3082;391;25;9;1800;15034;4;1907;522;30
15.02.20;15:30:00;1;523;7448;0;2;2697;17388;4;2837;390;33;3;1462;11394;4;1542;417;27;4;1305;16489;5;1359;247;29;5;3894;41628;4;2125;1698;425;686;35;6;2955;31478;4;1534;1505;594;567;32;7;3613;27368;4;3788;476;31;8;3554;27055;4;3722;469;31;9;1914;14884;4;2027;515;30
15.02.20;15:25:00;1;535;7404;0;2;2565;17165;4;2698;393;33;3;1390;11273;4;1470;424;27;4;1402;16381;5;1460;250;29;5;3807;41303;4;2073;1658;419;688;35;6;2909;31233;4;1490;1456;593;568;32;7;3430;27068;4;3600;467;31;8;2190;26658;0;2296;314;20;9;1826;14725;4;1939;532;30
15.02.20;15:20:00;1;570;7360;0;2;2507;16952;4;2636;392;33;3;1361;11157;4;1438;420;27;4;1439;16264;5;1499;248;30;5;3793;40985;4;2054;1650;420;677;35;6;2852;30993;4;1448;1425;590;560;32;7;3320;26783;4;3480;473;32;8;3241;26488;4;3396;475;31;9;1767;14576;4;1876;527;30
15.02.20;15:15:00;1;463;7319;0;2;2601;16744;4;2734;391;33;3;1389;11044;4;1467;413;28;4;1544;16144;5;1608;243;30;5;3893;40678;4;2118;1699;419;679;36;6;2927;30760;4;1509;1475;586;560;32;7;3302;26507;4;3469;469;32;8;2095;26216;4;2198;310;20;9;1765;14428;4;1868;513;31
15.02.20;15:10:00;1;678;7276;0;2;3139;16528;4;3302;398;34;3;1697;10929;4;1785;420;28;4;1836;16016;5;1912;250;31;5;4820;40345;4;2629;2118;419;683;36;6;3608;30511;4;1871;1815;590;564;32;7;4056;26232;4;4245;460;32;8;3990;25950;4;4178;463;31;9;2174;14280;4;2304;518;31
15.02.20;15:05:00;1;674;7202;0;2;2949;16266;4;3100;395;34;3;1593;10788;4;1682;422;28;4;1843;15863;5;1919;241;31;5;4612;39941;4;2512;2020;420;681;36;6;3506;30208;4;1803;1747;587;563;32;7;4041;25896;4;4238;466;32;8;2069;25620;4;2171;231;16;9;2173;14100;4;2299;523;31
15.02.20;15:00:00;1;525;7158;0;2;2580;16020;4;2719;396;34;3;1452;10655;4;1539;457;29;4;1733;15709;5;1805;243;32;5;4133;39559;4;2239;1808;420;683;36;6;3155;29917;4;1626;1598;580;558;32;7;3544;25558;4;3721;472;32;8;2812;25271;4;2945;370;25;9;1141;13919;4;1212;318;18
15.02.20;14:55:00;1;550;7113;0;2;2946;15803;4;3102;394;34;3;1758;10532;4;1858;486;29;4;2041;15563;5;2126;243;32;5;4740;39200;4;2582;2083;419;682;36;6;3563;29648;4;1837;1789;589;566;32;7;3893;25257;4;4083;471;33;8;3836;24969;4;4018;461;32;9;2107;13766;4;2231;517;32
15.02.20;14:50:00;1;653;7052;0;2;2653;15558;4;2794;389;34;3;1642;10386;4;1743;498;29;4;1898;15393;5;1977;241;32;5;4334;38805;4;2348;1900;420;678;36;6;3311;29349;4;1693;1648;585;567;32;7;2778;24837;0;2913;373;26;8;3530;24654;4;3708;473;32;9;1942;13591;4;2064;517;32
15.02.20;14:45:00;1;716;6996;0;2;2772;15336;4;2917;396;34;3;1772;10248;4;1877;514;30;4;2036;15234;5;2121;243;33;5;4641;38441;4;2530;2034;420;683;37;6;3508;29074;4;1806;1769;590;565;32;7;3145;24627;4;3299;386;27;8;1839;24357;4;1930;235;16;9;2021;13428;4;2144;517;32
15.02.20;14:40:00;1;799;6936;0;2;2862;15104;4;3015;396;35;3;1851;10101;4;1958;498;30;4;2152;15065;5;2241;240;33;5;4846;38057;4;2647;2129;417;676;37;6;3629;28784;4;1860;1813;585;567;33;7;3751;24316;4;3936;463;33;8;3649;24042;4;3830;460;33;9;1994;13259;4;2116;517;32
15.02.20;14:35:00;1;804;6869;0;2;3007;14866;4;3166;392;35;3;1931;9946;4;2041;492;30;4;2296;14885;5;2392;239;34;5;5075;37653;4;2773;2225;419;676;37;6;3815;28479;4;1976;1912;583;558;33;7;4029;24004;4;4223;463;34;8;3353;23738;4;3519;383;27;9;2204;13094;4;2336;513;33